Location: Auckland
(36.8670°S, 174.7670°E)
Time: 16:14:49
(UTC+13:00)

BREEZE-M DEB (TANK) - Pass Details

Date: 24 January 2019
Orbit: 278 x 14014 km, 46.1° (Epoch: 16 February)

Event Time Altitude Azimuth Distance (km) Brightness Sun altitude
Rises 22:18:32 0° 283° (WNW) 4,500 7.5 -17.6°
Reaches altitude 10° 22:23:03 10° 273° (W) 2,361 6.1 -18.2°
Maximum altitude 22:27:00 29° 210° (SSW) 812 3.9 -18.8°
Drops below altitude 10° 22:29:07 10° 143° (SE) 1,236 4.2 -19.1°
Enters shadow 22:29:09 10° 143° (SE) 1,248 4.2 -19.1°
